Location: ????????
(55.7510°N, 38.5305°E)
Time: 14:31:52
(UTC+00:00)

Daily predictions for brighter satellites

Satellite Brightness Start Highest point End
(mag) Time Altitude Azimuth Time Altitude Azimuth Time Altitude Azimuth
H-2A R/B 3.8 14:26:13 10° S 14:29:49 51° W 14:33:29 10° NNW
Cosmos 2098 Rocket 4.3 14:27:35 10° NNW 14:30:24 31° W 14:33:00 10° SSW
Cosmos 371 Rocket 4.4 14:26:05 10° SW 14:30:43 44° NW 14:35:24 10° NNE
Cosmos 1953 2.8 14:26:49 10° SSW 14:30:46 64° WNW 14:34:45 10° N
NOSS 2-1 (C) 3.5 14:29:26 10° WSW 14:32:48 57° NNW 14:36:46 10° NE
Meteor 2-16 Rocket 4.5 14:27:23 10° N 14:33:27 63° ENE 14:39:30 10° SSE
Cosmos 1606 Rocket 4.0 14:29:44 10° SSE 14:33:52 42° E 14:38:05 10° NNE
FengYun 1-2 T 4.3 14:31:00 10° SSE 14:36:36 67° ENE 14:42:11 10° NNW
NOSS 2-1 (D) 3.6 14:34:45 10° WSW 14:38:05 54° NNW 14:42:03 10° NE
Cosmos 1943 Rocket 3.5 14:34:17 10° WSW 14:39:20 34° NW 14:44:22 10° NNE
USA 305 3.6 14:35:59 10° W 14:40:13 55° SSW 14:44:25 10° ESE
Aureole 3 Rocket 4.3 14:36:15 10° SE 14:40:21 32° E 14:45:50 10° NNE
USA 215 3.3 14:36:01 10° E 14:42:35 82° N 14:49:09 10° W
Cosmos 292 Rocket 4.2 14:38:16 10° S 14:42:47 41° ESE 14:47:19 10° NE
Cosmos 1745 Rocket 4.5 14:37:15 10° N 14:43:06 38° ENE 14:48:57 10° SE
YAOGAN 6 3.2 14:39:29 10° S 14:43:08 64° WSW 14:46:51 10° NNW
Cosmos 1726 4.0 14:40:15 10° SW 14:43:39 33° WNW 14:47:05 10° N
ATLAS 2AS CENTAUR R/B 3.2 14:36:18 10° WNW 14:43:58 54° NNE 14:51:06 10° E
Cosmos 2219 3.3 14:38:37 10° NW 14:44:26 87° WSW 14:50:12 10° SSE
SeaSat 1 3.5 14:41:37 10° E 14:45:46 28° NE 14:49:55 10° NNW
H-2A R/B 3.1 14:41:48 10° ESE 14:46:17 27° NE 14:50:46 10° N
USA 306 3.6 14:42:30 10° W 14:46:42 52° SSW 14:50:51 10° ESE
COSMOS 2455 4.2 14:42:46 10° WNW 14:47:57 28° N 14:53:07 10° NE
CZ-4C R/B 3.2 14:45:48 10° N 14:49:03 67° WNW 14:52:22 10° SSW
ATLAS 5 CENTAUR R/B 2.5 14:45:01 10° W 14:49:16 45° NNW 14:54:16 10° NE
Cosmos 1455 3.9 14:48:27 10° ESE 14:50:20 13° E 14:52:12 10° NE
Cosmos 2082 3.8 14:46:01 10° NNW 14:51:43 59° NE 14:57:23 10° SE
Cosmos 1331 Rocket 4.0 14:47:24 10° S 14:52:29 61° ESE 14:57:34 10° NNE
SMAP 3.5 14:48:33 10° S 14:53:11 68° WSW 14:57:52 10° NNW
Okean-O 3.2 14:49:14 10° SE 14:53:19 37° ENE 14:57:24 10° N
H-2A R/B 4.4 14:49:49 10° SSW 14:54:01 38° W 14:58:16 10° NNW
Cosmos 1244 Rocket 4.5 14:49:49 10° N 14:56:03 73° ENE 15:02:18 10° SSE
Cosmos 2278 Rocket 4.1 14:52:19 10° NW 14:56:09 18° N 14:59:58 10° NE
CSL-04 DEB 4.3 14:52:44 10° NNE 14:56:43 81° ESE 15:00:38 10° SSW
Lacrosse 5 1.9 14:52:15 10° W 14:57:20 77° N 15:01:48 14° E
Cosmos 1953 Rocket 3.7 14:55:24 10° NNW 14:59:50 81° W 15:04:17 10° S
ARGOS 4.1 14:55:55 10° ESE 15:00:23 27° NE 15:04:52 10° N
GEOS 3 Rocket 3.9 14:55:36 10° ESE 15:00:51 58° NNE 15:06:10 10° NW
Cosmos 968 Rocket 3.4 14:55:50 10° NNW 15:01:06 78° ENE 15:06:18 10° SSE
Cosmos 1656 4.4 14:56:53 10° S 15:01:50 33° ESE 15:06:50 10° NE
ADEOS Rocket 3.3 14:55:31 10° NNE 15:01:51 84° WNW 15:08:54 10° SSW
FALCON 9 DEB 4.4 15:00:36 10° SSW 15:03:16 24° SSE 15:05:08 15° ESE
Cosmos 1844 Rocket 4.3 15:00:43 10° NNW 15:04:49 20° NNE 15:08:21 12° ENE
Feng Yun 1-1 Rocket 4.4 15:01:19 10° SSE 15:07:16 85° ENE 15:13:14 10° NNW
Cosmos 1408 3.1 15:04:11 10° N 15:07:37 37° ENE 15:11:03 10° SE
USA 281 4.0 15:02:03 10° S 15:08:28 55° WSW 15:14:57 10° NW
CZ-4B R/B 4.3 15:04:11 10° S 15:09:35 51° W 15:14:56 10° NNW
GENESIS II 4.3 15:06:06 10° SW 15:10:08 70° SE 15:13:31 14° NE
Cosmos 2058 Rocket 3.3 15:07:11 10° S 15:11:33 51° E 15:15:56 10° NNE
CZ-4C R/B 3.1 15:07:19 10° WNW 15:13:26 49° NNE 15:19:15 16° E
SL-08 ROCKET BODY 4.4 15:07:41 10° N 15:13:45 62° ENE 15:19:51 10° SSE
Cosmos 2227 Rocket 2.5 15:09:56 10° NW 15:15:35 71° WSW 15:21:12 10° SSE
ERBS 2.3 15:12:35 10° W 15:15:56 69° N 15:17:55 22° E
Cosmos 1076 Rocket 3.9 15:12:55 10° N 15:16:58 40° ENE 15:20:59 10° SE
IRS-1C Rocket 4.1 15:12:02 10° SSE 15:17:19 84° ENE 15:22:38 10° NNW
FALCON 9 DEB 4.3 15:14:57 10° SW 15:17:46 27° SSE 15:19:11 20° ESE
Cosmos 2263 Rocket 2.8 15:12:30 10° NNW 15:17:48 38° NE 15:21:42 17° E
SJ 16-02 3.2 15:16:16 10° N 15:18:49 15° NE 15:19:44 14° NE
Cosmos 1689 Rocket 2.8 15:17:46 19° NE 15:19:13 30° E 15:21:48 10° SSE
Cosmos 1818 4.3 15:14:45 10° WSW 15:20:03 50° NNW 15:25:06 11° NE
CSL-04 Rocket 4.0 15:16:07 10° SE 15:21:20 44° ENE 15:26:31 10° N
Cosmos 1892 2.6 15:19:06 10° N 15:23:00 76° ENE 15:26:54 10° SSE
Cosmos 1110 Rocket 4.1 15:17:47 10° SSW 15:23:02 79° WNW 15:28:17 10° NNE
FALCON 9 DEB 4.0 15:20:57 10° W 15:24:15 44° SSW 15:26:28 18° SE
Cosmos 1302 Rocket 4.0 15:19:51 10° S 15:25:02 62° ESE 15:30:17 10° NNE
H-2A R/B 3.0 15:22:25 10° N 15:26:27 46° WNW 15:30:23 10° SW
FALCON 9 DEB 4.1 15:24:28 10° SW 15:27:21 30° SSE 15:28:26 24° ESE
Cosmos 1939 Rocket 2.8 15:23:33 10° SSE 15:27:29 83° WSW 15:31:25 10° NNW
COSMO-SKYMED 1 2.7 15:23:56 10° NNE 15:28:11 50° E 15:32:25 10° S
USA 307 4.2 15:26:15 10° W 15:30:13 37° SSW 15:34:05 10° SE
Cosmos 1486 Rocket 4.4 15:25:04 10° NNW 15:30:23 68° WSW 15:35:39 10° SSE
NOSS 2-1 (E) 4.4 15:28:18 10° W 15:31:38 36° NNW 15:34:33 16° NE
SAR-Lupe-4 3.5 15:29:15 10° NNE 15:32:50 65° ESE 15:36:24 10° S
Cosmos 1697 Rocket 3.3 15:29:43 10° S 15:34:38 33° ESE 15:37:53 19° ENE
USA 308 4.2 15:31:14 10° W 15:35:10 35° SSW 15:38:52 11° SE
BREEZE-M R/B 4.3 15:33:52 10° WSW 15:37:27 41° S 15:42:10 17° ESE
CZ-4B R/B 1.6 15:34:48 10° N 15:38:02 65° WNW 15:41:10 10° SSW
Cosmos 1300 3.3 15:34:18 10° SSW 15:38:04 59° WNW 15:41:52 10° N
Cosmos 1825 2.2 15:35:09 10° N 15:38:53 52° ENE 15:42:35 10° SSE
Meteor 2-8 Rocket 4.4 15:32:50 10° S 15:38:56 78° E 15:45:08 10° NNE
Cosmos 1400 Rocket 2.8 15:34:58 10° S 15:39:03 86° ESE 15:43:09 10° NNE
S3M 4.1 15:33:38 10° SSE 15:39:32 52° E 15:45:32 10° NNE
ERS-2 2.5 15:36:44 10° NNE 15:40:22 64° WNW 15:43:59 10° SSW
Cosmos 1503 Rocket 4.0 15:35:23 10° NNW 15:40:38 87° WSW 15:45:55 10° SSE
Helios 1A Rocket 3.0 15:40:20 10° SSE 15:44:27 79° WSW 15:48:34 10° NNW
YAOGAN 1 2.4 15:41:34 10° SSE 15:45:53 79° ENE 15:50:15 10° NNW
Meteor 2-1 Rocket 4.3 15:42:27 10° S 15:47:45 51° E 15:53:07 10° NNE
Cosmos 1417 Rocket 4.4 15:43:32 10° S 15:49:47 72° E 15:56:08 10° NNE
Cosmos 1340 4.3 15:46:30 10° NNW 15:50:00 37° W 15:53:30 10° SSW
SAR-Lupe-1 4.0 15:47:05 10° NNE 15:50:41 88° WNW 15:54:15 10° SSW
Cosmos 44 3.2 15:47:12 10° SW 15:51:51 84° NW 15:55:00 22° NE
Okean 3 Rocket 4.3 15:48:16 10° N 15:52:03 31° ENE 15:52:03 31° ENE
SKYMED 3 4.4 15:47:55 10° NNE 15:52:18 81° ESE 15:56:39 10° SSW
Cosmos 1812 Rocket 3.9 15:48:19 10° SSE 15:52:26 41° E 15:56:33 10° NNE
Okean O Rocket 4.3 15:49:36 10° SW 15:53:00 22° W 15:56:24 10° NW
Cosmos 1354 Rocket 4.1 15:48:07 10° NNW 15:53:24 80° WSW 15:58:40 10° SSE
CZ-2D R/B 3.8 15:49:42 10° S 15:53:28 60° W 15:57:15 10° NNW
Cosmos 2297 Rocket 3.9 15:49:43 10° NW 15:54:49 35° WSW 15:59:53 10° S
Resurs 01 Rocket 3.7 15:56:30 13° NNE 15:56:30 13° NNE 15:57:31 10° NNE
CZ-4 R/B 1.4 15:51:38 10° S 15:55:30 75° WSW 15:59:22 10° NNW
Aureole 3 3.3 15:53:43 10° SSW 15:56:39 54° WNW 15:59:41 10° N
Timation 1 Rocket 4.4 15:50:56 10° NW 15:57:00 82° WSW 16:03:01 10° SSE
Cosmos 1346 Rocket 3.3 15:53:12 10° NNW 15:57:10 61° W 16:01:06 10° S
Cosmos 2058 3.1 15:53:06 10° NNW 15:57:12 69° W 16:01:16 10° S
Cosmos 2369 Rocket 4.1 15:53:21 10° WNW 15:57:56 24° NNW 16:02:33 10° NNE
Cosmos 1980 Rocket 3.1 15:53:36 10° SSE 15:57:31 27° ESE 15:57:31 27° ESE
SL-4 R/B 3.0 15:56:28 10° W 15:59:42 32° SSW 16:00:58 25° SSE
Cosmos 2151 3.0 15:55:42 10° N 15:59:50 51° ENE 16:00:54 40° ESE
Meteor 2-15 Rocket 4.4 15:54:38 10° S 16:00:41 63° E 16:06:46 10° NNE
PSLV R/B 3.8 15:56:55 10° NNE 16:01:09 81° ESE 16:05:18 10° SSW
Cosmos 1992 Rocket 4.0 15:56:36 10° S 16:01:40 54° ESE 16:05:12 19° NE
SJ-11-01 4.1 15:58:07 10° SSE 16:02:47 78° ENE 16:07:30 10° NNW
CSL-04 Debris 4.1 15:58:42 10° SSE 16:04:09 84° ENE 16:09:41 10° NNW
CZ-2C R/B 3.3 15:58:37 10° SSE 16:04:23 82° WSW 16:09:57 10° NNW
Cosmos 1553 Rocket 4.0 16:01:37 10° SSW 16:07:58 83° WNW 16:14:15 10° N
CRYOSAT 2 4.2 16:03:43 10° N 16:08:35 68° E 16:13:25 10° S
Meteor 2-15 4.4 16:06:01 10° S 16:12:11 87° E 16:18:22 10° NNE
Cosmos 2227 4.1 16:06:40 10° NNW 16:12:20 69° NE 16:14:40 36° SE
Cosmos 1315 Rocket 2.6 16:08:45 10° S 16:12:43 73° ESE 16:15:47 17° NNE
NOSS 3-4 (A) 3.8 16:06:38 10° NW 16:13:23 83° SW 16:18:11 24° SE
NOSS 3-4 (C) 3.8 16:06:44 10° NW 16:13:30 84° SW 16:18:15 25° SE
Ariane Rocket 3.3 16:13:29 42° E 16:14:10 45° ENE 16:19:01 10° N
SKYMED 2 4.0 16:12:01 10° N 16:16:21 64° WNW 16:20:39 10° SSW
Meteor 2-10 Rocket 3.4 16:11:59 10° SSW 16:17:13 89° ESE 16:22:20 10° NNE
Cosmos 220 Rocket 3.9 16:13:18 10° SSW 16:17:41 75° ESE 16:19:08 42° NE
Cosmos 2360 4.3 16:15:34 10° S 16:21:05 52° ESE 16:22:32 42° ENE
SeaSat 1 2.3 16:20:51 37° SE 16:22:50 88° NE 16:27:49 10° NNW
Cosmos 1943 Rocket 4.3 16:21:02 10° NW 16:24:45 18° NNW 16:28:10 11° NNE
H-2A R/B 2.3 16:19:48 10° S 16:25:15 76° WSW 16:30:45 10° NNW
Cosmos 1455 2.2 16:21:34 10° SSW 16:25:21 79° WNW 16:28:39 14° N
USA 215 3.2 16:22:49 38° ESE 16:25:39 89° SSW 16:32:14 10° WNW
Cosmos 1441 Rocket 4.2 16:22:12 10° N 16:24:38 34° N 16:24:38 34° N
NOSS 3-3 (A) 4.0 16:20:50 10° SSW 16:26:41 57° SE 16:28:42 41° ENE
MOS 1 Rocket 3.2 16:22:07 10° NNE 16:26:46 67° ESE 16:31:41 10° S
NOSS 3-3 (C) 4.0 16:20:58 10° SSW 16:26:48 57° SE 16:28:46 41° ENE
IRS-1A Rocket 4.2 16:27:59 48° ESE 16:29:12 59° ENE 16:34:38 10° NNW
Okean-O 4.1 16:25:40 10° SSW 16:29:48 37° W 16:33:57 10° NNW
Cosmos 2278 4.0 16:26:03 10° S 16:30:46 45° SE 16:30:46 45° SE
MOS 1 4.3 16:31:54 50° ESE 16:32:55 58° ENE 16:38:29 10° NNW
ATLAS 5 CENTAUR R/B 2.9 16:30:27 10° WNW 16:34:54 36° N 16:36:03 32° NNE
Meteor 2-3 Rocket 3.6 16:29:44 10° NNW 16:35:29 72° ENE 16:37:17 45° SE
COSMOS 2455 3.7 16:29:56 10° NW 16:35:29 36° NNE 16:36:35 33° NE
ATLAS 2AS CENTAUR R/B 2.9 16:27:49 10° NW 16:35:30 80° SW 16:38:50 36° SE
GEOS 3 Rocket 4.3 16:36:12 27° SSE 16:38:57 53° SW 16:44:16 10° NW
ARGOS 3.3 16:35:50 16° S 16:40:13 75° WSW 16:45:42 10° NNW
Lacrosse 5 1.7 16:35:23 10° WNW 16:40:29 84° SSW 16:41:00 72° SE
Cosmos 2278 Rocket 3.8 16:38:12 10° NNW 16:42:24 21° NNE 16:43:08 20° NNE
Cosmos 44 Rocket 4.3 16:38:26 10° SSW 16:41:12 32° S 16:41:12 32° S
Cosmos 1656 4.1 16:39:38 10° SW 16:45:12 63° NW 16:49:12 20° NNE
SL-08 RB Rocket 3.6 16:48:05 79° SW 16:48:15 82° WSW 16:52:49 10° NNW
Cosmos 1844 Rocket 3.3 16:44:52 10° NNW 16:50:00 41° NE 16:50:00 41° NE
ERBS 4.1 16:48:53 10° WNW 16:50:49 31° W 16:50:49 31° W
Cosmos 2184 Rocket 3.9 16:48:38 10° N 16:54:57 68° ENE 16:55:37 63° ESE
Cosmos 2369 3.6 16:50:08 10° SSW 16:55:52 88° ESE 16:57:13 55° NE
Cosmos 1777 Rocket 4.4 16:51:41 10° NNW 16:56:49 60° WSW 16:58:18 43° SSW
SJ 16-02 2.5 16:54:01 10° NNW 16:56:44 34° N 16:56:44 34° N
Meteor 2-17 Rocket 4.3 16:52:42 10° NNW 16:58:49 90° WNW 17:00:30 51° S
Cosmos 2263 Rocket 2.4 16:56:28 10° NW 17:02:08 66° WSW 17:03:25 51° S
CZ-4C R/B 2.7 16:55:55 10° NW 17:02:42 89° NE 17:04:27 58° SE
RESURS DK-1 4.4 16:59:51 10° NNW 17:01:39 20° N 17:01:39 20° N
SJ-6B 4.4 17:09:34 31° NNW 17:09:34 31° NNW 17:11:48 10° NNW
Cosmos 1844 4.4 17:02:49 10° NNW 17:07:17 41° NNE 17:07:17 41° NNE
Cosmos 2074 Rocket 3.8 17:06:41 10° NNW 17:12:57 87° E 17:13:23 78° SSE
Cosmos 1697 Rocket 3.0 17:12:44 10° SW 17:18:19 64° NW 17:19:40 49° N
Cosmos 1898 Rocket 4.3 17:15:22 10° NNW 17:19:10 43° N 17:19:10 43° N
Cosmos 2315 Rocket 4.4 17:22:27 10° SSW 17:28:36 61° WNW 17:34:46 10° N
SPOT 3 Rocket 4.5 17:32:20 42° NNW 17:32:20 42° NNW 17:35:45 10° NNW
Resurs 01 Rocket 3.8 17:34:04 19° N 17:34:04 19° N 17:35:18 10° NNW
Cosmos 1980 Rocket 3.4 17:36:15 10° SW 17:39:22 34° SW 17:39:22 34° SW
Cosmos 2369 Rocket 4.3 17:40:17 10° NW 17:44:04 18° N 17:44:55 17° NNE
Ariane Rocket 4.3 17:53:41 37° W 17:53:41 37° W 17:58:01 10° NNW
Cosmos 2154 Rocket 4.4 17:50:12 10° NNW 17:55:10 57° NW 17:55:10 57° NW
SeaSat 1 4.5 18:00:38 21° WSW 18:00:57 21° WSW 18:04:41 10° WNW
USA 215 3.9 18:10:10 46° WSW 18:10:10 46° WSW 18:15:26 10° WNW
Cosmos 1943 Rocket 4.3 18:06:49 10° NNW 18:09:41 18° N 18:09:41 18° N
ATLAS 5 CENTAUR R/B 3.8 18:15:17 10° NW 18:17:34 27° NW 18:17:34 27° NW
COSMOS 2455 4.0 18:16:06 10° NW 18:19:43 38° NW 18:19:43 38° NW
Lacrosse 5 4.2 18:18:31 10° WNW 18:20:11 19° W 18:20:11 19° W
ATLAS 2AS CENTAUR R/B 4.2 18:19:31 10° WNW 18:25:30 27° WSW 18:26:17 26° WSW
Cosmos 2278 Rocket 4.0 18:22:28 10° NNW 18:24:58 25° NNW 18:24:58 25° NNW
Cosmos 1844 Rocket 4.4 18:28:50 10° NW 18:31:40 29° NW 18:31:40 29° NW
SJ 16-02 4.4 18:33:05 10° NW 18:33:44 13° NW 18:33:44 13° NW
CZ-4C R/B 4.1 18:44:37 10° WNW 18:49:38 33° W 18:49:38 33° W
ATLAS CENTAUR R/B 4.5 18:52:42 10° WNW 19:13:45 80° W 19:13:45 80° W
Cosmos 2322 Rocket 4.4 23:31:09 19° NNE 23:31:18 19° NNE 23:35:19 10° ENE
USA 234 4.4 23:38:39 10° ENE 23:42:51 34° ESE 23:42:51 34° ESE
